Home > Weather > Olympia > Past weeks

Flag for USA Past Weather in Olympia, Washington, USA — Yesterday and Last 2 Weeks

Now
74 °F

Sunny.


Feels Like: 77 °F
Forecast: 55 / 80 °F
Wind: 7 mph from Southwest

Location: Olympia Airport

Current Time: Jun 28, 2016 at 7:04:25 PM

Latest Report: Jun 28, 2016 at 5:54 PM


Visibility: 10 mi

Pressure: 30.13 "Hg

Humidity: 52%

Dew Point: 55 °F

Location of OlympiaLocation

Past Weather in Olympia — Graph

°F

Olympia Temperature Yesterday

Maximum temperature yesterday: 84 °F (at 3:54 PM)
Minimum temperature yesterday: 53 °F (at 4:54 AM)
Average temperature yesterday: 67 °F

High & Low Weather Summary for the Past Weeks

 TemperatureHumidityPressure
High84 °F (Jun 27, 3:54 PM)97% (Jun 16, 7:03 AM)30.40 "Hg (Jun 16, 7:03 AM)
Low39 °F (Jun 15, 5:00 AM)27% (Jun 19, 4:54 PM)29.91 "Hg (Jun 15, 1:54 PM)
Average58 °F71%30.13 "Hg
* Reported Jun 13 5:54 PM — Jun 28 5:54 PM, Olympia, Weather by CustomWeather, © 2016

Note: Actual official high and low records may vary slightly from our data, if they occured in-between our weather recording intervals... More about our weather records

Advertising

Olympia Weather History for the Previous 24 Hours

Scroll right to see more
 ConditionsComfort  
Time TempWeatherWind HumidityBarometerVisibility
5:54 PM
Tue, Jun 28
74 °FSunny.7 mph52%30.13 "Hg10 mi
4:54 PM74 °FSunny.6 mph53%30.15 "Hg10 mi
3:54 PM73 °FSunny.9 mph53%30.16 "Hg10 mi
2:54 PM72 °FSunny.6 mph55%30.17 "Hg10 mi
1:54 PM69 °FSunny.6 mph59%30.19 "Hg10 mi
12:54 PM67 °FScattered clouds.5 mph61%30.20 "Hg10 mi
11:54 AM64 °FScattered clouds.7 mph65%30.22 "Hg10 mi
10:54 AM59 °FOvercast.3 mph75%30.23 "Hg10 mi
9:54 AM57 °FOvercast.5 mph81%30.23 "Hg10 mi
8:54 AM56 °FOvercast.No wind81%30.23 "Hg10 mi
7:54 AM55 °FOvercast.No wind87%30.23 "Hg10 mi
6:54 AM55 °FOvercast.No wind87%30.22 "Hg10 mi
5:54 AM52 °FOvercast.No wind93%30.21 "Hg10 mi
4:54 AM50 °FOvercast.No wind93%30.20 "Hg10 mi
4:04 AM48 °FPassing clouds.No wind96%30.21 "Hg1 mi
3:59 AM50 °FPassing clouds.No wind93%30.21 "Hg2 mi
2:54 AM50 °FClear.No wind93%30.21 "Hg10 mi
1:54 AM52 °FClear.No wind89%30.20 "Hg10 mi
12:54 AM52 °FClear.3 mph86%30.19 "Hg10 mi
11:54 PM
Mon, Jun 27
54 °FClear.6 mph83%30.19 "Hg10 mi
10:54 PM56 °FClear.6 mph77%30.18 "Hg10 mi
9:54 PM60 °FSunny.8 mph67%30.16 "Hg10 mi
8:54 PM66 °FSunny.9 mph50%30.14 "Hg10 mi
7:54 PM72 °FSunny.12 mph40%30.13 "Hg10 mi
Weather by CustomWeather, © 2016

See weather overviewHow to use our weather pages